Time,TemperatureF,DewpointF,PressureIn,WindDirection,WindDirectionDegrees,WindSpeedMPH,WindSpeedGustMPH,Humidity,HourlyPrecipIn,Conditions,Clouds,dailyrainin,SolarRadiationWatts/m^2,SoftwareType,DateUTC
2013-06-11 00:05:00,67.0,67.0,29.76,NNE,22,6.0,6.0,100,-99.99,,,1.44,0.00,VWS V14.01,2013-06-11 04:05:00,
2013-06-11 00:10:00,67.0,67.0,29.76,North,0,4.0,6.0,100,-99.99,,,1.44,0.00,VWS V14.01,2013-06-11 04:10:00,
2013-06-11 00:15:00,67.0,67.0,29.76,NNE,22,4.0,5.0,100,-99.99,,,1.44,0.00,VWS V14.01,2013-06-11 04:15:00,
2013-06-11 00:20:00,67.0,67.0,29.76,NE,45,3.0,6.0,100,-99.99,,,1.44,0.00,VWS V14.01,2013-06-11 04:20:00,
2013-06-11 00:25:00,67.0,67.0,29.76,North,0,3.0,4.0,100,-99.99,,,1.44,0.00,VWS V14.01,2013-06-11 04:25:00,
2013-06-11 00:30:00,67.0,67.0,29.76,NNE,22,3.0,6.0,100,-99.99,,,1.44,0.00,VWS V14.01,2013-06-11 04:30:00,
2013-06-11 00:35:00,67.0,67.0,29.76,WNW,292,3.0,3.0,100,-99.99,,,1.44,0.00,VWS V14.01,2013-06-11 04:35:00,
2013-06-11 00:40:00,67.0,67.0,29.76,WSW,248,4.0,4.0,100,-99.99,,,1.44,0.00,VWS V14.01,2013-06-11 04:40:00,
2013-06-11 00:45:00,67.0,67.0,29.75,WNW,292,4.0,4.0,100,-99.99,,,1.57,0.00,VWS V14.01,2013-06-11 04:45:00,
2013-06-11 00:50:00,67.0,67.0,29.76,SSW,202,3.0,6.0,100,-99.99,,,1.71,0.00,VWS V14.01,2013-06-11 04:50:00,
2013-06-11 00:55:00,67.0,67.0,29.76,WSW,248,5.0,7.0,100,-99.99,,,1.84,0.00,VWS V14.01,2013-06-11 04:55:00,
2013-06-11 01:00:00,67.0,67.0,29.76,WSW,248,7.0,7.0,100,-99.99,,,1.87,0.00,VWS V14.01,2013-06-11 05:00:00,
2013-06-11 01:05:00,67.0,67.0,29.76,SW,225,4.0,4.0,100,-99.99,,,0.00,0.00,VWS V14.01,2013-06-11 05:05:00,
2013-06-11 01:10:00,67.0,67.0,29.76,WSW,248,2.0,4.0,100,-99.99,,,0.00,0.00,VWS V14.01,2013-06-11 05:10:00,
2013-06-11 01:15:00,67.0,67.0,29.76,SW,225,1.0,3.0,100,-99.99,,,0.00,0.00,VWS V14.01,2013-06-11 05:15:00,
2013-06-11 01:20:00,67.0,67.0,29.75,SSW,202,1.0,2.0,100,-99.99,,,0.00,0.00,VWS V14.01,2013-06-11 05:20:00,
2013-06-11 01:25:00,67.0,67.0,29.76,SW,225,2.0,3.0,100,-99.99,,,0.00,0.00,VWS V14.01,2013-06-11 05:25:00,
2013-06-11 01:30:00,67.0,67.0,29.76,SW,225,4.0,4.0,100,-99.99,,,0.00,0.00,VWS V14.01,2013-06-11 05:30:00,
2013-06-11 01:35:00,67.0,67.0,29.76,SSW,202,4.0,4.0,100,-99.99,,,0.00,0.00,VWS V14.01,2013-06-11 05:35:00,
2013-06-11 01:40:00,67.0,67.0,29.76,SSW,202,4.0,5.0,100,-99.99,,,0.00,0.00,VWS V14.01,2013-06-11 05:40:00,
2013-06-11 01:45:00,67.0,67.0,29.76,SSE,158,2.0,4.0,100,-99.99,,,0.00,0.00,VWS V14.01,2013-06-11 05:45:00,
2013-06-11 01:50:00,67.0,67.0,29.76,South,180,3.0,7.0,100,-99.99,,,0.00,0.00,VWS V14.01,2013-06-11 05:50:00,
2013-06-11 01:55:00,67.0,67.0,29.76,SSW,202,5.0,5.0,100,-99.99,,,0.00,0.00,VWS V14.01,2013-06-11 05:55:00,
2013-06-11 02:00:00,67.0,67.0,29.76,SSW,202,3.0,6.0,100,-99.99,,,0.00,0.00,VWS V14.01,2013-06-11 06:00:00,
2013-06-11 02:05:00,67.0,67.0,29.75,SW,225,2.0,3.0,100,-99.99,,,0.00,0.00,VWS V14.01,2013-06-11 06:05:00,
2013-06-11 02:10:00,67.0,67.0,29.75,SSW,202,2.0,6.0,100,-99.99,,,0.00,0.00,VWS V14.01,2013-06-11 06:10:00,
2013-06-11 02:15:00,67.0,67.0,29.75,SSE,158,7.0,8.0,100,-99.99,,,0.00,0.00,VWS V14.01,2013-06-11 06:15:00,
2013-06-11 02:20:00,67.0,67.0,29.76,SE,135,4.0,6.0,100,-99.99,,,0.00,0.00,VWS V14.01,2013-06-11 06:20:00,
2013-06-11 02:25:00,67.0,67.0,29.76,South,180,9.0,10.0,100,-99.99,,,0.00,0.00,VWS V14.01,2013-06-11 06:25:00,
2013-06-11 02:30:00,67.0,67.0,29.76,SE,135,4.0,7.0,100,-99.99,,,0.00,0.00,VWS V14.01,2013-06-11 06:30:00,
2013-06-11 02:35:00,67.0,67.0,29.76,SE,135,5.0,6.0,100,-99.99,,,0.00,0.00,VWS V14.01,2013-06-11 06:35:00,
2013-06-11 02:40:00,67.0,67.0,29.76,SW,225,3.0,7.0,100,-99.99,,,0.00,0.00,VWS V14.01,2013-06-11 06:40:00,
2013-06-11 02:45:00,67.0,67.0,29.76,SSW,202,6.0,7.0,100,-99.99,,,0.00,0.00,VWS V14.01,2013-06-11 06:45:00,
2013-06-11 02:50:00,67.0,67.0,29.76,South,180,7.0,9.0,100,-99.99,,,0.00,0.00,VWS V14.01,2013-06-11 06:50:00,
2013-06-11 02:55:00,67.0,67.0,29.76,SE,135,5.0,6.0,100,-99.99,,,0.00,0.00,VWS V14.01,2013-06-11 06:55:00,
2013-06-11 03:00:00,67.0,67.0,29.76,SSW,202,3.0,4.0,100,-99.99,,,0.00,0.00,VWS V14.01,2013-06-11 07:00:00,
2013-06-11 03:05:00,67.0,67.0,29.76,SSE,158,3.0,5.0,100,-99.99,,,0.00,0.00,VWS V14.01,2013-06-11 07:05:00,
2013-06-11 03:10:00,67.0,67.0,29.76,South,180,2.0,7.0,100,-99.99,,,0.00,0.00,VWS V14.01,2013-06-11 07:10:00,
2013-06-11 03:15:00,67.0,67.0,29.76,South,180,4.0,5.0,100,-99.99,,,0.00,0.00,VWS V14.01,2013-06-11 07:15:00,
2013-06-11 03:20:00,67.0,67.0,29.76,ESE,112,4.0,9.0,100,-99.99,,,0.00,0.00,VWS V14.01,2013-06-11 07:20:00,
2013-06-11 03:25:00,67.0,67.0,29.76,SSE,158,7.0,8.0,100,-99.99,,,0.00,0.00,VWS V14.01,2013-06-11 07:25:00,
2013-06-11 03:30:00,67.0,67.0,29.76,ESE,112,5.0,8.0,100,-99.99,,,0.00,0.00,VWS V14.01,2013-06-11 07:30:00,
2013-06-11 03:35:00,67.0,67.0,29.76,South,180,3.0,5.0,100,-99.99,,,0.00,0.00,VWS V14.01,2013-06-11 07:35:00,
2013-06-11 03:40:00,67.0,67.0,29.76,SE,135,7.0,7.0,100,-99.99,,,0.00,0.00,VWS V14.01,2013-06-11 07:40:00,
2013-06-11 03:45:00,67.0,67.0,29.76,South,180,1.0,2.0,100,-99.99,,,0.00,0.00,VWS V14.01,2013-06-11 07:45:00,
2013-06-11 03:50:00,67.0,67.0,29.76,SSE,158,4.0,4.0,100,-99.99,,,0.00,0.00,VWS V14.01,2013-06-11 07:50:00,
2013-06-11 03:55:00,67.0,67.0,29.76,SW,225,3.0,4.0,100,-99.99,,,0.00,0.00,VWS V14.01,2013-06-11 07:55:00,
2013-06-11 04:00:00,67.0,67.0,29.75,SW,225,6.0,7.0,100,-99.99,,,0.00,0.00,VWS V14.01,2013-06-11 08:00:00,
2013-06-11 04:05:00,67.0,67.0,29.75,SW,225,3.0,3.0,100,-99.99,,,0.00,0.00,VWS V14.01,2013-06-11 08:05:00,
2013-06-11 04:10:00,67.0,67.0,29.75,SSE,158,1.0,4.0,100,-99.99,,,0.00,0.00,VWS V14.01,2013-06-11 08:10:00,
2013-06-11 04:15:00,67.0,67.0,29.75,SSE,158,1.0,3.0,100,-99.99,,,0.00,0.00,VWS V14.01,2013-06-11 08:15:00,
2013-06-11 04:20:00,66.0,66.0,29.75,SSE,158,1.0,2.0,100,-99.99,,,0.00,0.00,VWS V14.01,2013-06-11 08:20:00,
2013-06-11 04:25:00,66.0,66.0,29.75,SSW,202,2.0,3.0,100,-99.99,,,0.00,0.00,VWS V14.01,2013-06-11 08:25:00,
2013-06-11 04:30:00,66.0,66.0,29.75,SE,135,1.0,2.0,100,-99.99,,,0.00,0.00,VWS V14.01,2013-06-11 08:30:00,
2013-06-11 04:35:00,66.0,66.0,29.75,SW,225,2.0,2.0,100,-99.99,,,0.00,0.00,VWS V14.01,2013-06-11 08:35:00,
2013-06-11 04:40:00,66.0,66.0,29.75,SSE,158,2.0,3.0,100,-99.99,,,0.00,0.00,VWS V14.01,2013-06-11 08:40:00,
2013-06-11 04:45:00,66.0,66.0,29.75,SE,135,3.0,4.0,100,-99.99,,,0.00,0.00,VWS V14.01,2013-06-11 08:45:00,
2013-06-11 04:50:00,66.0,66.0,29.75,SW,225,2.0,3.0,100,-99.99,,,0.00,0.00,VWS V14.01,2013-06-11 08:50:00,
2013-06-11 04:55:00,66.0,66.0,29.75,SE,135,2.0,3.0,100,-99.99,,,0.00,0.00,VWS V14.01,2013-06-11 08:55:00,
2013-06-11 05:00:00,66.0,66.0,29.75,SSE,158,4.0,4.0,100,-99.99,,,0.00,0.00,VWS V14.01,2013-06-11 09:00:00,
2013-06-11 05:05:00,66.0,66.0,29.76,SSW,202,3.0,4.0,100,-99.99,,,0.00,0.00,VWS V14.01,2013-06-11 09:05:00,
2013-06-11 05:10:00,66.0,66.0,29.76,South,180,4.0,5.0,100,-99.99,,,0.00,0.00,VWS V14.01,2013-06-11 09:10:00,
2013-06-11 05:15:00,66.0,66.0,29.76,South,180,1.0,4.0,100,-99.99,,,0.00,0.00,VWS V14.01,2013-06-11 09:15:00,
2013-06-11 05:20:00,66.0,66.0,29.76,South,180,7.0,7.0,100,-99.99,,,0.00,0.00,VWS V14.01,2013-06-11 09:20:00,
2013-06-11 05:25:00,66.0,66.0,29.76,SSE,158,3.0,4.0,100,-99.99,,,0.00,0.00,VWS V14.01,2013-06-11 09:25:00,
2013-06-11 05:30:00,66.0,66.0,29.76,SSE,158,2.0,4.0,100,-99.99,,,0.00,0.00,VWS V14.01,2013-06-11 09:30:00,
2013-06-11 05:35:00,66.0,66.0,29.76,South,180,2.0,2.0,100,-99.99,,,0.00,0.00,VWS V14.01,2013-06-11 09:35:00,
2013-06-11 05:40:00,66.0,66.0,29.76,SSW,202,1.0,3.0,100,-99.99,,,0.00,0.00,VWS V14.01,2013-06-11 09:40:00,
2013-06-11 05:45:00,66.0,66.0,29.76,SW,225,6.0,6.0,100,-99.99,,,0.00,0.00,VWS V14.01,2013-06-11 09:45:00,
2013-06-11 05:50:00,66.0,66.0,29.76,ESE,112,4.0,4.0,100,-99.99,,,0.00,0.00,VWS V14.01,2013-06-11 09:50:00,
2013-06-11 05:55:00,66.0,66.0,29.76,SSE,158,3.0,5.0,100,-99.99,,,0.00,10.00,VWS V14.01,2013-06-11 09:55:00,
2013-06-11 06:00:00,66.0,66.0,29.76,WSW,248,3.0,3.0,100,-99.99,,,0.00,10.00,VWS V14.01,2013-06-11 10:00:00,
2013-06-11 06:05:00,66.0,66.0,29.76,SW,225,6.0,6.0,100,-99.99,,,0.00,10.00,VWS V14.01,2013-06-11 10:05:00,
2013-06-11 06:10:00,66.0,66.0,29.76,SSW,202,3.0,6.0,100,-99.99,,,0.00,10.00,VWS V14.01,2013-06-11 10:10:00,
2013-06-11 06:15:00,66.0,66.0,29.76,South,180,2.0,2.0,100,-99.99,,,0.00,30.00,VWS V14.01,2013-06-11 10:15:00,
2013-06-11 06:20:00,66.0,66.0,29.76,SE,135,2.0,3.0,100,-99.99,,,0.00,80.00,VWS V14.01,2013-06-11 10:20:00,
2013-06-11 06:25:00,66.0,66.0,29.76,SSE,158,4.0,4.0,100,-99.99,,,0.00,60.00,VWS V14.01,2013-06-11 10:25:00,
2013-06-11 06:30:00,66.0,66.0,29.76,South,180,6.0,6.0,100,-99.99,,,0.00,110.00,VWS V14.01,2013-06-11 10:30:00,
2013-06-11 06:35:00,66.0,66.0,29.77,SSE,158,3.0,3.0,100,-99.99,,,0.00,40.00,VWS V14.01,2013-06-11 10:35:00,
2013-06-11 06:40:00,66.0,66.0,29.77,SE,135,2.0,3.0,100,-99.99,,,0.00,20.00,VWS V14.01,2013-06-11 10:40:00,
2013-06-11 06:45:00,66.0,66.0,29.77,SW,225,6.0,7.0,100,-99.99,,,0.00,30.00,VWS V14.01,2013-06-11 10:45:00,
2013-06-11 06:50:00,66.0,66.0,29.77,SW,225,4.0,5.0,100,-99.99,,,0.00,20.00,VWS V14.01,2013-06-11 10:50:00,
2013-06-11 06:55:00,65.0,65.0,29.77,SSW,202,5.0,7.0,100,-99.99,,,0.00,50.00,VWS V14.01,2013-06-11 10:55:00,
2013-06-11 07:00:00,65.0,65.0,29.77,SSW,202,5.0,8.0,100,-99.99,,,0.00,60.00,VWS V14.01,2013-06-11 11:00:00,
2013-06-11 07:05:00,66.0,66.0,29.77,SSE,158,3.0,4.0,100,-99.99,,,0.00,50.00,VWS V14.01,2013-06-11 11:05:00,
2013-06-11 07:10:00,66.0,66.0,29.77,ESE,112,3.0,7.0,100,-99.99,,,0.00,70.00,VWS V14.01,2013-06-11 11:10:00,
2013-06-11 07:15:00,65.0,65.0,29.77,SSE,158,7.0,9.0,100,-99.99,,,0.00,50.00,VWS V14.01,2013-06-11 11:15:00,
2013-06-11 07:20:00,66.0,66.0,29.77,South,180,4.0,7.0,100,-99.99,,,0.00,50.00,VWS V14.01,2013-06-11 11:20:00,
2013-06-11 07:25:00,66.0,66.0,29.77,East,90,1.0,4.0,100,-99.99,,,0.00,60.00,VWS V14.01,2013-06-11 11:25:00,
2013-06-11 07:30:00,66.0,66.0,29.77,SW,225,3.0,4.0,100,-99.99,,,0.00,50.00,VWS V14.01,2013-06-11 11:30:00,
2013-06-11 07:35:00,66.0,66.0,29.77,SW,225,2.0,2.0,100,-99.99,,,0.00,60.00,VWS V14.01,2013-06-11 11:35:00,
2013-06-11 07:40:00,66.0,66.0,29.77,SSE,158,3.0,3.0,100,-99.99,,,0.00,60.00,VWS V14.01,2013-06-11 11:40:00,
2013-06-11 07:45:00,66.0,66.0,29.78,SSE,158,8.0,8.0,100,-99.99,,,0.00,70.00,VWS V14.01,2013-06-11 11:45:00,
2013-06-11 07:50:00,66.0,66.0,29.77,SSE,158,5.0,5.0,100,-99.99,,,0.00,120.00,VWS V14.01,2013-06-11 11:50:00,
2013-06-11 07:55:00,66.0,66.0,29.78,ESE,112,4.0,5.0,100,-99.99,,,0.00,100.00,VWS V14.01,2013-06-11 11:55:00,
2013-06-11 08:00:00,66.0,66.0,29.77,SSE,158,3.0,4.0,100,-99.99,,,0.00,90.00,VWS V14.01,2013-06-11 12:00:00,
2013-06-11 08:05:00,66.0,66.0,29.77,SSE,158,7.0,8.0,100,-99.99,,,0.00,90.00,VWS V14.01,2013-06-11 12:05:00,
2013-06-11 08:10:00,66.0,66.0,29.77,SE,135,8.0,8.0,100,-99.99,,,0.00,90.00,VWS V14.01,2013-06-11 12:10:00,
2013-06-11 08:15:00,66.0,66.0,29.77,SSE,158,4.0,4.0,100,-99.99,,,0.00,110.00,VWS V14.01,2013-06-11 12:15:00,
2013-06-11 08:20:00,67.0,67.0,29.77,SE,135,4.0,4.0,100,-99.99,,,0.00,110.00,VWS V14.01,2013-06-11 12:20:00,
2013-06-11 08:25:00,67.0,67.0,29.77,SSE,158,4.0,5.0,100,-99.99,,,0.00,90.00,VWS V14.01,2013-06-11 12:25:00,
2013-06-11 08:30:00,67.0,67.0,29.77,SSE,158,6.0,7.0,100,-99.99,,,0.00,100.00,VWS V14.01,2013-06-11 12:30:00,
2013-06-11 08:35:00,67.0,67.0,29.77,SSE,158,10.0,10.0,100,-99.99,,,0.00,110.00,VWS V14.01,2013-06-11 12:35:00,
2013-06-11 08:40:00,67.0,67.0,29.77,SSE,158,4.0,6.0,100,-99.99,,,0.00,110.00,VWS V14.01,2013-06-11 12:40:00,
2013-06-11 08:45:00,67.0,67.0,29.77,SSW,202,2.0,4.0,100,-99.99,,,0.00,110.00,VWS V14.01,2013-06-11 12:45:00,
2013-06-11 08:50:00,67.0,67.0,29.77,SSW,202,6.0,6.0,100,-99.99,,,0.00,120.00,VWS V14.01,2013-06-11 12:50:00,
2013-06-11 08:55:00,67.0,66.7,29.77,South,180,8.0,11.0,99,-99.99,,,0.00,120.00,VWS V14.01,2013-06-11 12:55:00,
2013-06-11 09:00:00,67.0,66.4,29.77,SSE,158,10.0,13.0,98,-99.99,,,0.00,220.00,VWS V14.01,2013-06-11 13:00:00,
2013-06-11 09:05:00,68.0,67.1,29.77,SSE,158,7.0,8.0,97,-99.99,,,0.00,100.00,VWS V14.01,2013-06-11 13:05:00,
2013-06-11 09:10:00,68.0,66.8,29.77,South,180,6.0,10.0,96,-99.99,,,0.00,100.00,VWS V14.01,2013-06-11 13:10:00,
2013-06-11 09:15:00,68.0,66.8,29.77,South,180,3.0,8.0,96,-99.99,,,0.00,190.00,VWS V14.01,2013-06-11 13:15:00,
2013-06-11 09:20:00,68.0,66.5,29.76,SSE,158,6.0,12.0,95,-99.99,,,0.00,560.00,VWS V14.01,2013-06-11 13:20:00,
2013-06-11 09:25:00,69.0,67.5,29.76,SSE,158,10.0,13.0,95,-99.99,,,0.00,320.00,VWS V14.01,2013-06-11 13:25:00,
2013-06-11 09:30:00,69.0,67.2,29.76,ESE,112,3.0,3.0,94,-99.99,,,0.00,300.00,VWS V14.01,2013-06-11 13:30:00,
2013-06-11 09:35:00,69.0,66.6,29.76,SW,225,11.0,13.0,92,-99.99,,,0.00,160.00,VWS V14.01,2013-06-11 13:35:00,
2013-06-11 09:40:00,69.0,66.3,29.76,SSW,202,6.0,9.0,91,-99.99,,,0.00,150.00,VWS V14.01,2013-06-11 13:40:00,
2013-06-11 09:45:00,70.0,67.3,29.75,South,180,7.0,11.0,91,-99.99,,,0.00,150.00,VWS V14.01,2013-06-11 13:45:00,
2013-06-11 09:50:00,70.0,66.9,29.75,South,180,13.0,16.0,90,-99.99,,,0.00,560.00,VWS V14.01,2013-06-11 13:50:00,
2013-06-11 09:55:00,71.0,67.9,29.76,SE,135,5.0,10.0,90,-99.99,,,0.00,480.00,VWS V14.01,2013-06-11 13:55:00,
2013-06-11 10:00:00,71.0,67.6,29.75,SE,135,8.0,10.0,89,-99.99,,,0.00,400.00,VWS V14.01,2013-06-11 14:00:00,
2013-06-11 10:05:00,71.0,67.3,29.75,SSE,158,6.0,13.0,88,-99.99,,,0.00,360.00,VWS V14.01,2013-06-11 14:05:00,
2013-06-11 10:10:00,70.0,66.0,29.75,South,180,14.0,20.0,87,-99.99,,,0.00,370.00,VWS V14.01,2013-06-11 14:10:00,
2013-06-11 10:15:00,71.0,66.9,29.75,SW,225,12.0,14.0,87,-99.99,,,0.00,480.00,VWS V14.01,2013-06-11 14:15:00,
2013-06-11 10:20:00,71.0,66.9,29.75,SSW,202,4.0,9.0,87,-99.99,,,0.00,390.00,VWS V14.01,2013-06-11 14:20:00,
2013-06-11 10:25:00,71.0,66.6,29.75,SE,135,9.0,14.0,86,-99.99,,,0.00,340.00,VWS V14.01,2013-06-11 14:25:00,
2013-06-11 10:30:00,71.0,66.3,29.74,SSW,202,11.0,16.0,85,-99.99,,,0.00,290.00,VWS V14.01,2013-06-11 14:30:00,
2013-06-11 10:35:00,71.0,66.3,29.74,SSE,158,16.0,20.0,85,-99.99,,,0.00,290.00,VWS V14.01,2013-06-11 14:35:00,
2013-06-11 10:40:00,71.0,66.3,29.74,SSE,158,14.0,17.0,85,-99.99,,,0.00,180.00,VWS V14.01,2013-06-11 14:40:00,
2013-06-11 10:45:00,71.0,66.6,29.74,SSE,158,5.0,10.0,86,-99.99,,,0.00,180.00,VWS V14.01,2013-06-11 14:45:00,
2013-06-11 10:50:00,71.0,66.6,29.74,SE,135,4.0,13.0,86,-99.99,,,0.00,180.00,VWS V14.01,2013-06-11 14:50:00,
2013-06-11 10:55:00,71.0,66.6,29.74,SE,135,7.0,19.0,86,-99.99,,,0.00,240.00,VWS V14.01,2013-06-11 14:55:00,
2013-06-11 11:00:00,71.0,66.9,29.74,SW,225,8.0,12.0,87,-99.99,,,0.00,230.00,VWS V14.01,2013-06-11 15:00:00,
2013-06-11 11:05:00,70.0,66.3,29.75,SSW,202,5.0,14.0,88,-99.99,,,0.00,90.00,VWS V14.01,2013-06-11 15:05:00,
2013-06-11 11:10:00,70.0,66.6,29.75,SSE,158,12.0,18.0,89,-99.99,,,0.00,90.00,VWS V14.01,2013-06-11 15:10:00,
2013-06-11 11:15:00,70.0,67.3,29.75,SW,225,5.0,6.0,91,-99.99,,,0.01,70.00,VWS V14.01,2013-06-11 15:15:00,
2013-06-11 11:20:00,69.0,66.6,29.74,SE,135,11.0,14.0,92,-99.99,,,0.02,60.00,VWS V14.01,2013-06-11 15:20:00,
2013-06-11 11:25:00,69.0,66.9,29.74,SSE,158,6.0,6.0,93,-99.99,,,0.04,70.00,VWS V14.01,2013-06-11 15:25:00,
2013-06-11 11:30:00,69.0,67.2,29.75,South,180,9.0,15.0,94,-99.99,,,0.04,70.00,VWS V14.01,2013-06-11 15:30:00,
2013-06-11 11:35:00,69.0,67.5,29.75,SSW,202,5.0,9.0,95,-99.99,,,0.05,80.00,VWS V14.01,2013-06-11 15:35:00,
2013-06-11 11:40:00,69.0,67.8,29.75,South,180,5.0,7.0,96,-99.99,,,0.06,130.00,VWS V14.01,2013-06-11 15:40:00,
2013-06-11 11:45:00,69.0,67.8,29.75,South,180,9.0,10.0,96,-99.99,,,0.06,150.00,VWS V14.01,2013-06-11 15:45:00,
2013-06-11 11:50:00,69.0,68.1,29.75,SSW,202,4.0,12.0,97,-99.99,,,0.06,120.00,VWS V14.01,2013-06-11 15:50:00,
2013-06-11 11:55:00,69.0,68.1,29.75,East,90,7.0,10.0,97,-99.99,,,0.06,140.00,VWS V14.01,2013-06-11 15:55:00,
2013-06-11 12:00:00,68.0,67.1,29.75,SSE,158,4.0,15.0,97,-99.99,,,0.06,200.00,VWS V14.01,2013-06-11 16:00:00,
2013-06-11 12:05:00,68.0,67.1,29.74,South,180,7.0,8.0,97,-99.99,,,0.06,270.00,VWS V14.01,2013-06-11 16:05:00,
2013-06-11 12:10:00,69.0,68.1,29.74,SSE,158,3.0,13.0,97,-99.99,,,0.06,340.00,VWS V14.01,2013-06-11 16:10:00,
2013-06-11 12:15:00,69.0,68.1,29.74,South,180,7.0,14.0,97,-99.99,,,0.06,320.00,VWS V14.01,2013-06-11 16:15:00,
2013-06-11 12:20:00,69.0,68.1,29.74,SSE,158,5.0,6.0,97,-99.99,,,0.06,250.00,VWS V14.01,2013-06-11 16:20:00,
2013-06-11 12:25:00,69.0,67.8,29.74,SSW,202,9.0,11.0,96,-99.99,,,0.06,220.00,VWS V14.01,2013-06-11 16:25:00,
2013-06-11 12:30:00,70.0,68.5,29.74,SE,135,7.0,9.0,95,-99.99,,,0.06,210.00,VWS V14.01,2013-06-11 16:30:00,
2013-06-11 12:35:00,70.0,68.2,29.74,SSW,202,16.0,16.0,94,-99.99,,,0.06,210.00,VWS V14.01,2013-06-11 16:35:00,
2013-06-11 12:40:00,70.0,67.9,29.73,SSE,158,10.0,21.0,93,-99.99,,,0.06,140.00,VWS V14.01,2013-06-11 16:40:00,
2013-06-11 12:45:00,70.0,67.6,29.73,South,180,4.0,7.0,92,-99.99,,,0.06,130.00,VWS V14.01,2013-06-11 16:45:00,
2013-06-11 12:50:00,70.0,67.3,29.73,SSE,158,7.0,13.0,91,-99.99,,,0.06,110.00,VWS V14.01,2013-06-11 16:50:00,
2013-06-11 12:55:00,70.0,67.3,29.74,SE,135,4.0,11.0,91,-99.99,,,0.06,120.00,VWS V14.01,2013-06-11 16:55:00,
2013-06-11 13:00:00,71.0,68.2,29.74,ESE,112,5.0,10.0,91,-99.99,,,0.06,170.00,VWS V14.01,2013-06-11 17:00:00,
2013-06-11 13:05:00,71.0,68.2,29.73,SW,225,6.0,12.0,91,-99.99,,,0.06,300.00,VWS V14.01,2013-06-11 17:05:00,
2013-06-11 13:10:00,71.0,68.2,29.73,SSE,158,6.0,6.0,91,-99.99,,,0.06,560.00,VWS V14.01,2013-06-11 17:10:00,
2013-06-11 13:15:00,72.0,68.6,29.73,SW,225,7.0,10.0,89,-99.99,,,0.06,450.00,VWS V14.01,2013-06-11 17:15:00,
2013-06-11 13:20:00,72.0,67.9,29.73,South,180,5.0,13.0,87,-99.99,,,0.06,400.00,VWS V14.01,2013-06-11 17:20:00,
2013-06-11 13:25:00,72.0,67.6,29.73,SW,225,15.0,17.0,86,-99.99,,,0.06,440.00,VWS V14.01,2013-06-11 17:25:00,
2013-06-11 13:30:00,73.0,68.2,29.74,South,180,8.0,13.0,85,-99.99,,,0.06,470.00,VWS V14.01,2013-06-11 17:30:00,
2013-06-11 13:35:00,74.0,68.9,29.73,SSW,202,10.0,17.0,84,-99.99,,,0.06,320.00,VWS V14.01,2013-06-11 17:35:00,
2013-06-11 13:40:00,74.0,68.2,29.73,SW,225,11.0,19.0,82,-99.99,,,0.06,300.00,VWS V14.01,2013-06-11 17:40:00,
2013-06-11 13:45:00,74.0,67.8,29.73,SSW,202,10.0,13.0,81,-99.99,,,0.06,470.00,VWS V14.01,2013-06-11 17:45:00,
2013-06-11 13:50:00,74.0,67.8,29.73,SSE,158,9.0,14.0,81,-99.99,,,0.06,290.00,VWS V14.01,2013-06-11 17:50:00,
2013-06-11 13:55:00,74.0,68.2,29.73,SSE,158,10.0,14.0,82,-99.99,,,0.06,360.00,VWS V14.01,2013-06-11 17:55:00,
2013-06-11 14:00:00,74.0,67.8,29.73,SSE,158,10.0,17.0,81,-99.99,,,0.06,200.00,VWS V14.01,2013-06-11 18:00:00,
2013-06-11 14:05:00,74.0,68.2,29.72,SW,225,10.0,11.0,82,-99.99,,,0.06,520.00,VWS V14.01,2013-06-11 18:05:00,
2013-06-11 14:10:00,75.0,68.8,29.72,South,180,3.0,7.0,81,-99.99,,,0.06,480.00,VWS V14.01,2013-06-11 18:10:00,
2013-06-11 14:15:00,75.0,68.4,29.72,SW,225,7.0,7.0,80,-99.99,,,0.06,390.00,VWS V14.01,2013-06-11 18:15:00,
2013-06-11 14:20:00,75.0,67.3,29.72,SW,225,9.0,16.0,77,-99.99,,,0.06,270.00,VWS V14.01,2013-06-11 18:20:00,
2013-06-11 14:25:00,75.0,67.3,29.72,SE,135,4.0,13.0,77,-99.99,,,0.06,250.00,VWS V14.01,2013-06-11 18:25:00,
2013-06-11 14:30:00,75.0,67.3,29.72,SW,225,9.0,12.0,77,-99.99,,,0.06,420.00,VWS V14.01,2013-06-11 18:30:00,
2013-06-11 14:35:00,75.0,66.9,29.72,SW,225,16.0,20.0,76,-99.99,,,0.06,550.00,VWS V14.01,2013-06-11 18:35:00,
2013-06-11 14:40:00,76.0,67.9,29.72,SSE,158,6.0,15.0,76,-99.99,,,0.06,400.00,VWS V14.01,2013-06-11 18:40:00,
2013-06-11 14:45:00,76.0,67.5,29.72,SW,225,6.0,13.0,75,-99.99,,,0.06,340.00,VWS V14.01,2013-06-11 18:45:00,
2013-06-11 14:50:00,75.0,66.6,29.72,SW,225,9.0,18.0,75,-99.99,,,0.06,320.00,VWS V14.01,2013-06-11 18:50:00,
2013-06-11 14:55:00,75.0,66.2,29.72,SW,225,7.0,17.0,74,-99.99,,,0.06,410.00,VWS V14.01,2013-06-11 18:55:00,
2013-06-11 15:00:00,75.0,66.2,29.72,SSW,202,10.0,16.0,74,-99.99,,,0.06,340.00,VWS V14.01,2013-06-11 19:00:00,
2013-06-11 15:05:00,76.0,67.1,29.72,SSW,202,15.0,15.0,74,-99.99,,,0.06,290.00,VWS V14.01,2013-06-11 19:05:00,
2013-06-11 15:10:00,76.0,67.1,29.73,WSW,248,7.0,12.0,74,-99.99,,,0.06,270.00,VWS V14.01,2013-06-11 19:10:00,
2013-06-11 15:15:00,76.0,65.1,29.72,SW,225,16.0,21.0,69,-99.99,,,0.06,280.00,VWS V14.01,2013-06-11 19:15:00,
2013-06-11 15:20:00,76.0,64.7,29.72,West,270,10.0,18.0,68,-99.99,,,0.06,450.00,VWS V14.01,2013-06-11 19:20:00,
2013-06-11 15:25:00,76.0,64.3,29.72,SSW,202,12.0,23.0,67,-99.99,,,0.06,680.00,VWS V14.01,2013-06-11 19:25:00,
2013-06-11 15:30:00,76.0,64.3,29.72,SW,225,14.0,25.0,67,-99.99,,,0.06,350.00,VWS V14.01,2013-06-11 19:30:00,
2013-06-11 15:35:00,76.0,64.3,29.72,WSW,248,24.0,24.0,67,-99.99,,,0.06,250.00,VWS V14.01,2013-06-11 19:35:00,
2013-06-11 15:40:00,76.0,63.8,29.73,SW,225,8.0,18.0,66,-99.99,,,0.06,170.00,VWS V14.01,2013-06-11 19:40:00,
2013-06-11 15:45:00,75.0,62.9,29.73,SW,225,15.0,19.0,66,-99.99,,,0.06,130.00,VWS V14.01,2013-06-11 19:45:00,
2013-06-11 15:50:00,75.0,63.3,29.73,SSW,202,7.0,20.0,67,-99.99,,,0.06,270.00,VWS V14.01,2013-06-11 19:50:00,
2013-06-11 15:55:00,75.0,63.7,29.73,SW,225,8.0,13.0,68,-99.99,,,0.06,290.00,VWS V14.01,2013-06-11 19:55:00,
2013-06-11 16:00:00,75.0,63.3,29.73,SSW,202,17.0,21.0,67,-99.99,,,0.06,290.00,VWS V14.01,2013-06-11 20:00:00,
2013-06-11 16:05:00,75.0,63.3,29.73,SW,225,14.0,20.0,67,-99.99,,,0.06,200.00,VWS V14.01,2013-06-11 20:05:00,
2013-06-11 16:10:00,75.0,63.7,29.73,SW,225,7.0,15.0,68,-99.99,,,0.06,190.00,VWS V14.01,2013-06-11 20:10:00,
2013-06-11 16:15:00,75.0,62.9,29.74,WSW,248,15.0,20.0,66,-99.99,,,0.06,200.00,VWS V14.01,2013-06-11 20:15:00,
2013-06-11 16:20:00,75.0,63.3,29.74,SW,225,9.0,19.0,67,-99.99,,,0.06,240.00,VWS V14.01,2013-06-11 20:20:00,
2013-06-11 16:25:00,75.0,62.9,29.74,WSW,248,13.0,26.0,66,-99.99,,,0.06,170.00,VWS V14.01,2013-06-11 20:25:00,
2013-06-11 16:30:00,75.0,63.3,29.74,WNW,292,9.0,19.0,67,-99.99,,,0.06,170.00,VWS V14.01,2013-06-11 20:30:00,
2013-06-11 16:35:00,75.0,63.7,29.74,SW,225,13.0,13.0,68,-99.99,,,0.06,410.00,VWS V14.01,2013-06-11 20:35:00,
2013-06-11 16:40:00,75.0,64.2,29.74,WSW,248,9.0,11.0,69,-99.99,,,0.06,350.00,VWS V14.01,2013-06-11 20:40:00,
2013-06-11 16:45:00,75.0,63.7,29.74,SW,225,17.0,18.0,68,-99.99,,,0.06,260.00,VWS V14.01,2013-06-11 20:45:00,
2013-06-11 16:50:00,75.0,63.7,29.74,SW,225,10.0,12.0,68,-99.99,,,0.06,320.00,VWS V14.01,2013-06-11 20:50:00,
2013-06-11 16:55:00,75.0,63.7,29.74,SW,225,12.0,13.0,68,-99.99,,,0.06,610.00,VWS V14.01,2013-06-11 20:55:00,
2013-06-11 17:00:00,75.0,62.9,29.74,SW,225,16.0,28.0,66,-99.99,,,0.06,370.00,VWS V14.01,2013-06-11 21:00:00,
2013-06-11 17:05:00,75.0,63.3,29.74,SW,225,16.0,17.0,67,-99.99,,,0.06,180.00,VWS V14.01,2013-06-11 21:05:00,
2013-06-11 17:10:00,75.0,63.3,29.74,WSW,248,12.0,17.0,67,-99.99,,,0.06,200.00,VWS V14.01,2013-06-11 21:10:00,
2013-06-11 17:15:00,75.0,63.3,29.74,SW,225,10.0,20.0,67,-99.99,,,0.06,240.00,VWS V14.01,2013-06-11 21:15:00,
2013-06-11 17:20:00,75.0,63.7,29.74,WSW,248,13.0,17.0,68,-99.99,,,0.06,220.00,VWS V14.01,2013-06-11 21:20:00,
2013-06-11 17:25:00,75.0,63.3,29.74,WSW,248,11.0,15.0,67,-99.99,,,0.06,260.00,VWS V14.01,2013-06-11 21:25:00,
2013-06-11 17:30:00,75.0,62.9,29.74,SSW,202,9.0,21.0,66,-99.99,,,0.06,190.00,VWS V14.01,2013-06-11 21:30:00,
2013-06-11 17:35:00,75.0,63.3,29.74,SSW,202,16.0,24.0,67,-99.99,,,0.06,230.00,VWS V14.01,2013-06-11 21:35:00,
2013-06-11 17:40:00,75.0,63.3,29.74,SW,225,18.0,19.0,67,-99.99,,,0.06,180.00,VWS V14.01,2013-06-11 21:40:00,
2013-06-11 17:45:00,74.0,62.8,29.74,SSW,202,17.0,21.0,68,-99.99,,,0.06,110.00,VWS V14.01,2013-06-11 21:45:00,
2013-06-11 17:50:00,74.0,63.2,29.74,South,180,11.0,16.0,69,-99.99,,,0.06,70.00,VWS V14.01,2013-06-11 21:50:00,
2013-06-11 17:55:00,74.0,63.2,29.75,SSW,202,16.0,19.0,69,-99.99,,,0.06,80.00,VWS V14.01,2013-06-11 21:55:00,
2013-06-11 18:00:00,73.0,62.7,29.75,WSW,248,17.0,19.0,70,-99.99,,,0.06,60.00,VWS V14.01,2013-06-11 22:00:00,
2013-06-11 18:05:00,73.0,63.0,29.74,WSW,248,13.0,16.0,71,-99.99,,,0.06,100.00,VWS V14.01,2013-06-11 22:05:00,
2013-06-11 18:10:00,73.0,63.0,29.75,West,270,11.0,17.0,71,-99.99,,,0.06,110.00,VWS V14.01,2013-06-11 22:10:00,
2013-06-11 18:15:00,73.0,63.5,29.75,SSW,202,11.0,13.0,72,-99.99,,,0.06,410.00,VWS V14.01,2013-06-11 22:15:00,
2013-06-11 18:20:00,74.0,64.4,29.75,SW,225,13.0,13.0,72,-99.99,,,0.06,150.00,VWS V14.01,2013-06-11 22:20:00,
2013-06-11 18:25:00,73.0,63.5,29.75,SW,225,10.0,14.0,72,-99.99,,,0.06,130.00,VWS V14.01,2013-06-11 22:25:00,
2013-06-11 18:30:00,73.0,63.5,29.75,SW,225,9.0,12.0,72,-99.99,,,0.06,110.00,VWS V14.01,2013-06-11 22:30:00,
2013-06-11 18:35:00,73.0,63.8,29.75,SSW,202,11.0,15.0,73,-99.99,,,0.06,140.00,VWS V14.01,2013-06-11 22:35:00,
2013-06-11 18:40:00,73.0,64.2,29.75,SW,225,13.0,15.0,74,-99.99,,,0.06,120.00,VWS V14.01,2013-06-11 22:40:00,
2013-06-11 18:45:00,73.0,64.2,29.75,SSW,202,7.0,12.0,74,-99.99,,,0.06,110.00,VWS V14.01,2013-06-11 22:45:00,
2013-06-11 18:50:00,73.0,64.2,29.75,SW,225,12.0,19.0,74,-99.99,,,0.06,280.00,VWS V14.01,2013-06-11 22:50:00,
2013-06-11 18:55:00,73.0,64.2,29.76,West,270,5.0,11.0,74,-99.99,,,0.06,240.00,VWS V14.01,2013-06-11 22:55:00,
2013-06-11 19:00:00,73.0,64.2,29.76,SW,225,14.0,19.0,74,-99.99,,,0.06,190.00,VWS V14.01,2013-06-11 23:00:00,
2013-06-11 19:05:00,73.0,64.6,29.76,SW,225,4.0,8.0,75,-99.99,,,0.06,250.00,VWS V14.01,2013-06-11 23:05:00,
2013-06-11 19:10:00,73.0,64.6,29.76,SSW,202,8.0,14.0,75,-99.99,,,0.06,70.00,VWS V14.01,2013-06-11 23:10:00,
2013-06-11 19:15:00,72.0,64.0,29.76,SW,225,6.0,10.0,76,-99.99,,,0.06,70.00,VWS V14.01,2013-06-11 23:15:00,
2013-06-11 19:20:00,72.0,64.0,29.76,WSW,248,7.0,13.0,76,-99.99,,,0.06,50.00,VWS V14.01,2013-06-11 23:20:00,
2013-06-11 19:25:00,72.0,64.0,29.76,SW,225,10.0,20.0,76,-99.99,,,0.06,40.00,VWS V14.01,2013-06-11 23:25:00,
2013-06-11 19:30:00,72.0,63.7,29.76,WSW,248,14.0,19.0,75,-99.99,,,0.06,40.00,VWS V14.01,2013-06-11 23:30:00,
2013-06-11 19:35:00,72.0,63.7,29.76,SW,225,15.0,17.0,75,-99.99,,,0.06,100.00,VWS V14.01,2013-06-11 23:35:00,
2013-06-11 19:40:00,72.0,63.7,29.77,WSW,248,12.0,19.0,75,-99.99,,,0.06,100.00,VWS V14.01,2013-06-11 23:40:00,
2013-06-11 19:45:00,72.0,63.3,29.77,SW,225,19.0,22.0,74,-99.99,,,0.06,110.00,VWS V14.01,2013-06-11 23:45:00,
2013-06-11 19:50:00,72.0,63.3,29.77,WSW,248,16.0,18.0,74,-99.99,,,0.06,30.00,VWS V14.01,2013-06-11 23:50:00,
2013-06-11 19:55:00,72.0,63.7,29.77,SW,225,13.0,17.0,75,-99.99,,,0.06,20.00,VWS V14.01,2013-06-11 23:55:00,
2013-06-11 20:00:00,72.0,63.7,29.77,WSW,248,10.0,14.0,75,-99.99,,,0.06,20.00,VWS V14.01,2013-06-12 00:00:00,
2013-06-11 20:05:00,72.0,63.7,29.78,West,270,9.0,13.0,75,-99.99,,,0.06,10.00,VWS V14.01,2013-06-12 00:05:00,
2013-06-11 20:10:00,71.0,62.7,29.78,SW,225,10.0,11.0,75,-99.99,,,0.06,50.00,VWS V14.01,2013-06-12 00:10:00,
2013-06-11 20:15:00,71.0,62.7,29.77,SW,225,10.0,18.0,75,-99.99,,,0.06,10.00,VWS V14.01,2013-06-12 00:15:00,
2013-06-11 20:20:00,71.0,62.7,29.78,WSW,248,9.0,16.0,75,-99.99,,,0.06,10.00,VWS V14.01,2013-06-12 00:20:00,
2013-06-11 20:25:00,71.0,62.7,29.78,WSW,248,7.0,10.0,75,-99.99,,,0.06,10.00,VWS V14.01,2013-06-12 00:25:00,
2013-06-11 20:30:00,71.0,62.7,29.78,SW,225,12.0,19.0,75,-99.99,,,0.06,0.00,VWS V14.01,2013-06-12 00:30:00,
2013-06-11 20:35:00,71.0,62.7,29.78,SSW,202,11.0,14.0,75,-99.99,,,0.06,0.00,VWS V14.01,2013-06-12 00:35:00,
2013-06-11 20:40:00,71.0,62.3,29.78,SW,225,17.0,17.0,74,-99.99,,,0.06,0.00,VWS V14.01,2013-06-12 00:40:00,
2013-06-11 20:45:00,71.0,62.3,29.79,SW,225,6.0,8.0,74,-99.99,,,0.06,0.00,VWS V14.01,2013-06-12 00:45:00,
2013-06-11 20:50:00,71.0,62.7,29.79,SW,225,10.0,10.0,75,-99.99,,,0.06,0.00,VWS V14.01,2013-06-12 00:50:00,
2013-06-11 20:55:00,71.0,62.7,29.79,SW,225,4.0,7.0,75,-99.99,,,0.06,0.00,VWS V14.01,2013-06-12 00:55:00,
2013-06-11 21:00:00,71.0,62.7,29.79,West,270,9.0,11.0,75,-99.99,,,0.06,0.00,VWS V14.01,2013-06-12 01:00:00,
2013-06-11 21:05:00,71.0,63.1,29.79,WSW,248,3.0,9.0,76,-99.99,,,0.06,0.00,VWS V14.01,2013-06-12 01:05:00,
2013-06-11 21:10:00,71.0,63.1,29.79,SSW,202,5.0,6.0,76,-99.99,,,0.06,0.00,VWS V14.01,2013-06-12 01:10:00,
2013-06-11 21:15:00,71.0,63.4,29.79,SSW,202,5.0,8.0,77,-99.99,,,0.06,0.00,VWS V14.01,2013-06-12 01:15:00,
2013-06-11 21:20:00,71.0,63.4,29.79,SSW,202,8.0,13.0,77,-99.99,,,0.06,0.00,VWS V14.01,2013-06-12 01:20:00,
2013-06-11 21:25:00,71.0,63.4,29.79,WSW,248,7.0,10.0,77,-99.99,,,0.06,0.00,VWS V14.01,2013-06-12 01:25:00,
2013-06-11 21:30:00,70.0,62.5,29.79,SSW,202,7.0,9.0,77,-99.99,,,0.06,0.00,VWS V14.01,2013-06-12 01:30:00,
2013-06-11 21:35:00,70.0,62.5,29.80,SW,225,6.0,10.0,77,-99.99,,,0.06,0.00,VWS V14.01,2013-06-12 01:35:00,
2013-06-11 21:40:00,70.0,62.5,29.80,SSW,202,7.0,9.0,77,-99.99,,,0.06,0.00,VWS V14.01,2013-06-12 01:40:00,
2013-06-11 21:45:00,70.0,62.5,29.80,SW,225,4.0,7.0,77,-99.99,,,0.06,0.00,VWS V14.01,2013-06-12 01:45:00,
2013-06-11 21:50:00,70.0,62.5,29.80,SW,225,7.0,7.0,77,-99.99,,,0.06,0.00,VWS V14.01,2013-06-12 01:50:00,
2013-06-11 21:55:00,70.0,62.5,29.80,SSW,202,3.0,7.0,77,-99.99,,,0.06,0.00,VWS V14.01,2013-06-12 01:55:00,
2013-06-11 22:00:00,70.0,62.5,29.80,SW,225,4.0,6.0,77,-99.99,,,0.06,0.00,VWS V14.01,2013-06-12 02:00:00,
2013-06-11 22:05:00,70.0,62.5,29.81,SSW,202,4.0,6.0,77,-99.99,,,0.06,0.00,VWS V14.01,2013-06-12 02:05:00,
2013-06-11 22:10:00,70.0,62.5,29.81,WSW,248,4.0,7.0,77,-99.99,,,0.06,0.00,VWS V14.01,2013-06-12 02:10:00,
2013-06-11 22:15:00,69.0,61.5,29.81,SSW,202,8.0,9.0,77,-99.99,,,0.06,0.00,VWS V14.01,2013-06-12 02:15:00,
2013-06-11 22:20:00,69.0,61.5,29.81,SW,225,2.0,9.0,77,-99.99,,,0.06,0.00,VWS V14.01,2013-06-12 02:20:00,
2013-06-11 22:25:00,69.0,61.5,29.81,South,180,1.0,6.0,77,-99.99,,,0.06,0.00,VWS V14.01,2013-06-12 02:25:00,
2013-06-11 22:30:00,69.0,61.5,29.81,SW,225,4.0,4.0,77,-99.99,,,0.06,0.00,VWS V14.01,2013-06-12 02:30:00,
2013-06-11 22:35:00,69.0,61.5,29.82,South,180,7.0,7.0,77,-99.99,,,0.06,0.00,VWS V14.01,2013-06-12 02:35:00,
2013-06-11 22:40:00,69.0,61.5,29.82,SSW,202,3.0,6.0,77,-99.99,,,0.06,0.00,VWS V14.01,2013-06-12 02:40:00,
2013-06-11 22:45:00,69.0,61.5,29.82,South,180,8.0,9.0,77,-99.99,,,0.06,0.00,VWS V14.01,2013-06-12 02:45:00,
2013-06-11 22:50:00,69.0,61.5,29.82,WSW,248,5.0,8.0,77,-99.99,,,0.06,0.00,VWS V14.01,2013-06-12 02:50:00,
2013-06-11 22:55:00,69.0,61.5,29.82,SSW,202,5.0,6.0,77,-99.99,,,0.06,0.00,VWS V14.01,2013-06-12 02:55:00,
2013-06-11 22:56:00,68.0,60.9,29.81,WSW,248,3.0,5.0,78,-99.99,,,0.06,0.00,VWS V14.01,2013-06-12 02:56:00,
2013-06-11 22:57:00,68.0,60.9,29.81,SE,135,4.0,4.0,78,-99.99,,,0.06,0.00,VWS V14.01,2013-06-12 02:57:00,
2013-06-11 22:58:00,68.0,60.9,29.81,SW,225,7.0,9.0,78,-99.99,,,0.06,0.00,VWS V14.01,2013-06-12 02:58:00,
2013-06-11 22:59:00,68.0,60.9,29.81,SW,225,7.0,10.0,78,-99.99,,,0.06,0.00,VWS V14.01,2013-06-12 02:59:00,
2013-06-11 23:00:00,69.0,61.5,29.82,SSW,202,4.0,10.0,77,-99.99,,,0.06,0.00,VWS V14.01,2013-06-12 03:00:00,
2013-06-11 23:01:00,68.0,60.9,29.81,WSW,248,3.0,7.0,78,-99.99,,,0.06,0.00,VWS V14.01,2013-06-12 03:01:00,
2013-06-11 23:02:00,68.0,60.9,29.81,SW,225,1.0,3.0,78,-99.99,,,0.06,0.00,VWS V14.01,2013-06-12 03:02:00,
2013-06-11 23:03:00,68.0,60.9,29.81,SSW,202,2.0,2.0,78,-99.99,,,0.06,0.00,VWS V14.01,2013-06-12 03:03:00,
2013-06-11 23:05:00,69.0,61.5,29.82,SSW,202,6.0,7.0,77,-99.99,,,0.06,0.00,VWS V14.01,2013-06-12 03:05:00,
2013-06-11 23:10:00,69.0,61.5,29.82,SSW,202,3.0,5.0,77,-99.99,,,0.06,0.00,VWS V14.01,2013-06-12 03:10:00,
2013-06-11 23:15:00,69.0,61.5,29.82,SW,225,3.0,6.0,77,-99.99,,,0.06,0.00,VWS V14.01,2013-06-12 03:15:00,
2013-06-11 23:20:00,69.0,61.5,29.82,South,180,5.0,6.0,77,-99.99,,,0.06,0.00,VWS V14.01,2013-06-12 03:20:00,
2013-06-11 23:25:00,69.0,61.5,29.82,SW,225,6.0,7.0,77,-99.99,,,0.06,0.00,VWS V14.01,2013-06-12 03:25:00,
2013-06-11 23:30:00,68.0,60.5,29.81,SW,225,3.0,7.0,77,-99.99,,,0.06,0.00,VWS V14.01,2013-06-12 03:30:00,
2013-06-11 23:35:00,68.0,60.5,29.81,SW,225,2.0,8.0,77,-99.99,,,0.06,0.00,VWS V14.01,2013-06-12 03:35:00,
2013-06-11 23:40:00,68.0,60.5,29.82,SW,225,7.0,7.0,77,-99.99,,,0.06,0.00,VWS V14.01,2013-06-12 03:40:00,
2013-06-11 23:45:00,68.0,60.9,29.82,SSW,202,8.0,8.0,78,-99.99,,,0.06,0.00,VWS V14.01,2013-06-12 03:45:00,
2013-06-11 23:50:00,68.0,60.9,29.82,SSW,202,4.0,8.0,78,-99.99,,,0.06,0.00,VWS V14.01,2013-06-12 03:50:00,
2013-06-11 23:55:00,68.0,60.9,29.82,SW,225,5.0,8.0,78,-99.99,,,0.06,0.00,VWS V14.01,2013-06-12 03:55:00,